Vertical_Velocity
1 -41 2 3 -0 -5 8 -7 4 -0 6 -1 4 -4 0 4 -5 -1 -1 -2 -2 -1 0 -1 -1 1 1 0 1 1 1 1 -1 -2 -0 -2 -1 -1 -0 -2 -3 -3 -2
-9 9 3 -2 -3 14 12 1 -2 2 7 3 3 -3 -0 -3 2 -4 -4 -1 -1 0 1 -2 -0 1 -0 1 2 0 0 -1 -0 -0 0 -1 -1 0 -2 -2 -2 -1 -1
12 3 -17 -3 15 9 1 4 -5 4 4 -1 3 0 -2 -3 8 -7 -6 -1 1 1 -1 2 0 -0 0 -1 0 -0 -1 1 1 -1 -1 -2 -1 -2 -1 -1 -1 -1 -1
-9 0 10 1 5 -2 4 3 -0 6 6 4 1 -2 9 -3 6 -5 -4 -2 1 1 -0 1 0 0 1 -0 1 0 0 0 -0 0 -3 -2 -2 -2 -1 -0 -0 -0 -2
-5 -2 10 1 7 -4 -1 9 1 -4 5 -1 -9 13 1 -0 1 -1 -2 -2 2 1 1 1 1 1 -0 -0 1 1 -1 -1 -1 -1 -5 -2 -2 -2 -1 -3 -2 -1 -2
15 9 15 5 8 -8 10 2 0 -0 -8 4 10 8 0 -2 -1 -3 -1 -3 -0 3 0 -0 -0 0 -0 -1 0 1 0 -0 1 -4 -4 -2 -1 -1 -0 -1 -1 -3 -4
15 8 4 -4 7 10 -1 0 -3 -4 5 9 -2 3 1 1 -1 -0 -1 2 -0 4 -1 0 -1 -1 0 -0 1 0 0 0 -1 -4 -4 -2 -3 -2 -2 -1 -1 0 2
-3 4 12 4 -6 7 3 -7 8 9 7 4 -2 15 8 -1 -2 1 -0 2 0 4 -0 0 -3 -0 -0 -0 1 -1 0 -1 -1 -2 -2 -2 -1 -3 -1 -1 -1 0 -1
1 -10 -3 12 -2 -3 4 -6 -4 -1 3 -3 -1 -2 6 2 -0 4 1 1 1 3 1 0 -3 -0 -0 0 1 0 -1 0 1 -1 -3 -2 2 1 -1 -2 -2 -2 -4
-24 -3 5 8 2 6 -6 6 -1 4 2 -4 4 2 -4 -1 2 1 4 -2 4 4 -0 1 -2 0 0 1 1 1 -0 -2 -1 -1 -1 -1 -2 -0 1 1 -0 -1 0
6 2 4 -2 4 3 6 3 -2 2 -3 5 3 0 -1 3 2 3 1 -0 3 -0 0 -1 -1 1 1 1 0 -0 -1 -1 -1 -1 -1 -1 -1 -2 -2 -1 0 1 0
3 -1 -5 5 0 6 17 -2 -3 -6 6 -0 -0 -0 1 3 1 6 2 1 1 2 -2 -0 1 1 0 2 1 -1 -1 -1 -1 -1 -1 -0 -1 -3 -4 -3 -2 -1 -1
-6 2 -4 11 12 9 1 -1 -4 -1 4 1 1 2 4 3 4 3 2 1 3 -2 -1 -0 2 1 -0 1 -1 -1 -1 -1 -1 -0 0 -1 -3 -3 -2 -2 -2 -3 -2
-3 1 0 6 -1 -4 -3 -3 1 3 1 -1 0 1 2 1 0 4 0 -3 -1 -0 3 2 1 0 -0 -2 -2 -1 -2 -1 -2 -1 -0 -1 -3 -2 -2 -1 -2 -4 -5
2 -0 -3 -4 -3 -4 -0 2 2 2 0 -0 2 -0 1 1 5 2 0 4 0 -0 -2 0 3 1 -0 -1 -1 -0 -1 -1 -1 -1 -2 -3 -2 -2 -2 -1 -2 -1 -1
-0 -0 -0 -3 -1 1 1 1 0 -2 -1 -0 -1 -2 -1 -3 -1 -1 -3 -4 -3 1 2 3 -0 0 -1 -1 -0 -1 -1 -1 -1 -2 -2 -2 -2 -1 -2 -3 -2 -2 -2
-1 -2 -1 -1 -1 0 1 1 1 -1 -1 -1 -2 -1 0 -2 -0 0 1 1 2 1 2 -0 0 0 -0 0 -1 -1 -1 -1 -1 -1 -1 -1 -1 -2 -2 -1 -1 -2 -2
-2 -2 -1 -1 -0 0 1 1 -0 -1 2 0 0 0 -1 -1 -1 0 -0 -1 1 1 2 1 0 0 1 -0 -2 -1 -1 0 -0 -1 -1 -1 -1 -1 -1 -1 -2 -1 -1
-1 -1 0 -0 1 1 0 -1 -0 -1 -2 -2 -2 -0 -1 -1 -0 -2 -1 2 -1 -2 -1 0 0 0 -0 1 -0 -0 0 0 -1 -1 -1 -0 -1 -1 -1 -1 -2 -1 -1
-2 -2 -1 -0 0 1 -0 -0 -1 0 -1 -0 1 0 -0 0 1 1 1 -1 -0 -1 -2 1 -1 0 1 0 -0 -1 -1 0 0 -0 -1 -1 -1 -1 -1 -2 -2 -2 -2
-0 -0 0 -0 1 1 -1 0 0 1 1 1 -1 -2 0 1 -0 -0 -0 -1 -2 -0 -0 -0 -0 -0 1 0 -0 -0 -0 0 -0 -1 -1 -2 -1 -2 -2 -2 -2 -1 -2
-1 0 0 1 1 2 2 -0 -0 -1 -1 -0 -1 -0 -2 -2 -1 0 0 0 -1 -0 -0 -0 1 1 0 0 -0 0 0 0 -0 -1 -2 -1 -0 -1 -1 -1 -1 -1 -1
1 1 0 -0 1 -0 -0 -1 -1 -1 -1 -1 -1 -1 -1 -2 -1 -1 0 1 1 0 -0 0 1 0 -1 -0 -1 -1 -1 0 0 -0 1 0 -1 -1 -1 -1 -1 -0 -1
1 1 0 0 1 1 0 -1 -1 -2 -3 -3 -2 -0 1 -0 -0 0 0 -0 -0 -1 -0 -0 -0 0 0 0 0 0 0 1 1 2 2 0 -1 -1 -1 0 -0 -0 0
1 1 1 1 2 2 0 -1 -1 -1 -1 -1 -0 0 0 0 -0 -0 -1 -1 -1 -1 -0 0 0 -0 -0 -0 -0 -0 1 1 2 1 -0 -0 -0 -0 0 -0 -0 -0 -0
2 2 1 1 1 1 1 1 0 -0 -1 -1 -0 -1 -1 -1 -1 -1 -2 -2 -1 -1 -0 -0 0 1 0 0 0 1 1 1 -0 -1 -1 -0 -0 0 -0 -0 -1 -1 -1
Height
2977 2986 2992 2999 3004 3010 3015 3017 3022 3026 3029 3032 3034 3037 3041 3041 3043 3045 3045 3046 3046 3047 3048 3049 3050 3051 3052 3053 3054 3054 3054 3054 3053 3052 3050 3049 3049 3047 3045 3043 3040 3037 3035
2977 2983 2989 2996 3000 3003 3006 3011 3017 3021 3023 3026 3029 3032 3035 3037 3037 3038 3040 3041 3042 3043 3044 3045 3046 3047 3048 3049 3050 3050 3050 3049 3049 3048 3046 3046 3045 3043 3041 3038 3036 3033 3031
2974 2980 2984 2989 2995 2997 3000 3005 3011 3015 3018 3020 3023 3027 3029 3030 3032 3032 3035 3037 3038 3039 3040 3041 3042 3044 3044 3046 3046 3046 3046 3045 3045 3044 3043 3042 3041 3039 3036 3034 3031 3029 3027
2968 2973 2978 2984 2988 2991 2995 3000 3005 3009 3012 3014 3017 3022 3023 3025 3026 3027 3029 3031 3034 3035 3036 3037 3039 3040 3041 3042 3042 3042 3041 3041 3040 3039 3039 3038 3036 3034 3031 3029 3028 3025 3023
2963 2969 2974 2978 2981 2984 2989 2994 2999 3002 3006 3009 3012 3014 3016 3019 3020 3022 3023 3025 3028 3030 3031 3033 3034 3036 3037 3037 3038 3037 3037 3036 3035 3034 3035 3033 3031 3029 3027 3025 3022 3020 3018
2956 2965 2968 2972 2974 2978 2982 2987 2991 2995 2998 3001 3005 3007 3009 3012 3015 3016 3018 3020 3023 3025 3026 3028 3030 3031 3032 3033 3033 3033 3032 3031 3030 3030 3029 3028 3026 3024 3022 3020 3018 3015 3013
2951 2957 2962 2966 2967 2974 2975 2981 2985 2987 2991 2994 2997 2999 3002 3004 3008 3010 3011 3015 3017 3019 3022 3023 3025 3026 3027 3028 3028 3028 3027 3026 3025 3025 3024 3023 3021 3018 3016 3014 3012 3010 3008
2945 2951 2957 2959 2964 2966 2971 2976 2978 2984 2987 2988 2989 2991 2992 2997 3001 3004 3006 3009 3012 3014 3017 3018 3020 3021 3022 3022 3022 3022 3022 3021 3020 3020 3019 3018 3015 3013 3011 3009 3007 3004 3002
2939 2945 2950 2954 2958 2962 2967 2972 2975 2977 2979 2982 2984 2986 2987 2990 2994 2998 3001 3004 3007 3010 3011 3013 3015 3016 3017 3017 3017 3017 3017 3016 3016 3015 3014 3012 3011 3008 3006 3004 3001 2998 2995
2937 2942 2946 2950 2954 2958 2963 2965 2970 2971 2973 2976 2978 2980 2983 2985 2989 2992 2995 2998 3001 3004 3006 3008 3010 3011 3012 3012 3012 3012 3012 3011 3010 3009 3008 3006 3004 3002 3000 2997 2994 2992 2989
2932 2935 2940 2945 2948 2952 2957 2960 2963 2965 2966 2968 2971 2973 2977 2980 2983 2986 2988 2992 2996 2998 3000 3003 3004 3006 3007 3007 3007 3007 3006 3005 3003 3002 3001 2999 2997 2996 2994 2991 2988 2985 2982
2925 2929 2934 2939 2943 2947 2951 2954 2957 2960 2958 2961 2963 2966 2970 2973 2975 2979 2982 2985 2989 2992 2995 2997 2999 3000 3001 3002 3002 3001 3000 2999 2997 2996 2994 2993 2991 2988 2985 2982 2980 2977 2975
2919 2925 2931 2934 2937 2943 2947 2949 2951 2951 2952 2955 2957 2960 2963 2966 2969 2971 2975 2979 2983 2987 2990 2992 2994 2995 2996 2996 2996 2995 2994 2993 2991 2990 2988 2986 2984 2981 2978 2975 2972 2969 2968
2915 2921 2925 2930 2934 2938 2941 2942 2943 2945 2947 2949 2951 2954 2957 2959 2962 2966 2969 2973 2977 2981 2985 2986 2988 2989 2990 2990 2989 2989 2988 2986 2984 2983 2981 2979 2977 2974 2972 2969 2965 2961 2957
2913 2917 2921 2925 2929 2932 2934 2937 2939 2941 2943 2945 2947 2949 2952 2955 2959 2962 2966 2970 2973 2977 2978 2981 2982 2983 2984 2984 2983 2983 2982 2980 2978 2976 2974 2972 2970 2968 2965 2962 2958 2955 2952
2911 2914 2918 2921 2923 2926 2929 2932 2934 2936 2938 2940 2942 2945 2948 2950 2954 2958 2961 2964 2967 2971 2974 2975 2977 2978 2978 2978 2977 2976 2975 2973 2971 2969 2967 2965 2963 2960 2957 2954 2951 2948 2944
2909 2912 2914 2916 2919 2922 2925 2927 2929 2931 2934 2936 2938 2941 2944 2948 2951 2955 2958 2961 2964 2966 2969 2970 2971 2971 2971 2971 2970 2970 2968 2966 2964 2962 2960 2958 2955 2952 2949 2946 2943 2939 2936
2905 2908 2910 2912 2915 2918 2921 2924 2926 2928 2931 2934 2936 2939 2942 2945 2949 2952 2954 2956 2960 2962 2963 2964 2965 2965 2965 2964 2963 2962 2961 2959 2958 2956 2953 2950 2947 2944 2941 2938 2935 2932 2928
2903 2905 2907 2909 2911 2914 2917 2920 2923 2925 2928 2931 2933 2937 2940 2942 2945 2947 2950 2953 2955 2956 2957 2958 2959 2958 2958 2958 2956 2955 2954 2952 2951 2948 2946 2943 2940 2938 2934 2931 2927 2924 2921
2899 2902 2904 2906 2909 2912 2915 2917 2920 2922 2925 2928 2931 2934 2936 2938 2941 2944 2946 2948 2950 2951 2951 2952 2952 2952 2952 2951 2950 2948 2947 2945 2943 2941 2939 2936 2934 2931 2927 2923 2919 2916 2912
2896 2899 2901 2903 2906 2909 2912 2915 2917 2920 2923 2926 2928 2930 2933 2935 2937 2939 2941 2943 2944 2945 2945 2946 2946 2946 2945 2944 2943 2941 2940 2938 2936 2934 2931 2929 2926 2922 2918 2915 2911 2908 2905
2893 2896 2898 2901 2903 2906 2908 2911 2914 2916 2919 2922 2924 2926 2928 2931 2932 2934 2936 2938 2938 2939 2940 2940 2939 2939 2938 2937 2936 2934 2933 2931 2928 2926 2923 2920 2917 2913 2909 2906 2903 2900 2897
2890 2892 2895 2897 2900 2902 2905 2908 2910 2913 2916 2918 2920 2922 2925 2927 2928 2930 2932 2933 2933 2933 2933 2933 2933 2932 2931 2930 2929 2927 2925 2923 2920 2918 2915 2912 2908 2905 2901 2898 2895 2892 2888
2886 2889 2891 2894 2897 2900 2903 2905 2908 2910 2913 2915 2917 2919 2922 2923 2924 2926 2927 2927 2927 2927 2926 2926 2925 2924 2923 2922 2921 2919 2917 2914 2912 2909 2906 2903 2899 2896 2894 2890 2887 2884 2880
2883 2886 2889 2891 2894 2897 2900 2902 2905 2907 2909 2912 2914 2916 2918 2919 2920 2921 2921 2921 2920 2920 2919 2919 2918 2917 2916 2915 2913 2911 2908 2906 2903 2900 2897 2894 2891 2889 2886 2882 2879 2875 2872
2881 2884 2886 2889 2892 2894 2897 2899 2902 2904 2906 2908 2910 2912 2913 2914 2915 2915 2915 2915 2914 2914 2913 2912 2911 2910 2909 2907 2904 2902 2900 2897 2894 2891 2888 2886 2883 2880 2877 2874 2871 2867 2864